San Diego, CA

10:34 AM PST on February 22, 2017 (GMT -0800)
San Diego International-Lindbergh | | Change Station
Active Advisory: High Surf Advisory Active Notice: High Surf Advisory

Elev 13 ft 32.73 °N, 117.19 °W | Updated 43 minutes ago

Mostly Cloudy
Mostly Cloudy
61 °F
Feels Like 61 °F
N
13
Wind Variable Wind from NW

Today
High -- | Low -- °F
--% Chance of Precip.
Yesterday
High -- | Low -- °F
Precip. -- in
Pressure 30.18 in
Visibility 10.0 miles
Clouds Few 700 ft
Scattered Clouds 1700 ft
Mostly Cloudy 14000 ft
Mostly Cloudy 25000 ft
Dew Point 49 °F
Humidity 64%
Rainfall 0.00 in
Snow Depth Not available.
6:24 AM 5:40 PM
Waning Crescent, 16% visible
METAR KSAN 221751Z 31011KT 10SM FEW007 SCT017 BKN140 BKN250 16/09 A3018 RMK AO2 SLP218 SCT V BKN 60000 T01610094 10167 20139 50004
Pressure 30.18 in
Visibility 10.0 miles
Clouds Few 700 ft
Scattered Clouds 1700 ft
Mostly Cloudy 14000 ft
Mostly Cloudy 25000 ft
Dew Point 49 °F
Humidity 64%
Rainfall 0.00 in
Snow Depth Not available.
6:24 AM 5:40 PM
Waning Crescent, 16% visible
METAR KSAN 221751Z 31011KT 10SM FEW007 SCT017 BKN140 BKN250 16/09 A3018 RMK AO2 SLP218 SCT V BKN 60000 T01610094 10167 20139 50004

Get Your Daily Forecast Email!

Thanks for signing up!

Be on the lookout for a verification email in your inbox.

You'll start receiving the daily forecast at 8 AM.

×

10-Day Weather Forecast

Almanac

Astronomy

Feb. 22, 2017 Rise Set
Actual Time
Civil Twilight
Nautical Twilight
Astronomical Twilight
Moon
Length of Visible Light
Length of Day
Tomorrow will be .
, % of the Moon is Illuminated

Today's Extremes

State Highs State Lows

Community

WunderPhotos

Upload Photos

1,962,540 photos uploaded!

WunderBlog® & News

Nearby

Air Quality

  Air Quality AQ Index Pollutant
Not available.

Snow Depth

Station Depth Elevation

Earthquake Activity

City Distance Mag. Time & Date
Minimum magnitude displayed is 2.5.

Coastal Water Temperatures

Place Temperature

Stations

Nearby Weather Stations

Station Location Temp. Windchill Dew Point Humidity Wind Precip. Elev Updated Type
                   

Watches & Warnings

High Surf Advisory
Issued: 5:29 AM PST Feb. 22, 2017 – National Weather Service

... High surf advisory remains in effect until 2 am PST Friday...

* waves and surf... surf building to 5 to 8 ft with sets to 10 ft
this afternoon and continuing through Thursday morning. Swell
and surf will slowly lower during the day Thursday.

* Timing... through Thursday night with the highest surf expected
late this afternoon and evening.

* Tides... high tide of 4.8 to 5 ft at around 610 am today and 5.2
to 5.3 ft at around 645 am Thursday.

* Impacts... strong rip currents and dangerous swimming conditions.
Minor flooding possible at susceptible low lying beach areas
during high tide.

Precautionary/preparedness actions...

A high surf advisory means that high surf will affect beaches in
the advisory area... producing localized beach erosion and
dangerous swimming conditions.